Weather History for Cecil Field, FL

Change the Weather History Date:

Monday, May 20, 2013

  Actual Average (KJAX) Record (KJAX)
Temperature  
Mean Temperature 72 °F 75 °F  
Max Temperature 80 °F 86 °F 99 °F (1962)
Min Temperature 64 °F 64 °F 46 °F (1894)
Degree Days  
Heating Degree Days 0 0  
Month to date heating degree days 3  
Since 1 July heating degree days 1347  
Cooling Degree Days 7 10  
Month to date cooling degree days 161  
Year to date cooling degree days 357  
Growing Degree Days 22 (Base 50)    
Moisture  
Dew Point 68 °F    
Average Humidity 95    
Maximum Humidity 100    
Minimum Humidity 74    
Precipitation  
Precipitation 0.07 in 0.07 in 5.07 in (2009)
Month to date precipitation 1.34  
Year to date precipitation 14.42  
Snow  
Snow 0.00 in 0.00 in 0.00 in (2002)
Month to date snowfall 0.0  
Since 1 July snowfall T  
Snow Depth -    
Sea Level Pressure  
Sea Level Pressure 30.07 in    
Wind  
Wind Speed 2 mph (SSE)    
Max Wind Speed 12 mph    
Max Gust Speed -    
Visibility 8 miles    
Events Rain , Thunderstorm    
T = Trace of Precipitation, MM = Missing Value Source: NWS Daily Summary

Daily Weather History Graph

Daily Weather History Graph

Search for Another Location

Airport:

Trip Planner

Search our weather history database for the weather conditions in past years. The results will help you decide how hot, cold, wet, or windy it might be!

Date:

Astronomy

May. 20, 2013 Rise Set
Actual Time 6:30 AM EDT 8:17 PM EDT
Civil Twilight 6:04 AM EDT 8:44 PM EDT
Nautical Twilight 5:32 AM EDT 9:16 PM EDT
Astronomical Twilight 4:58 AM EDT 9:50 PM EDT
Moon 3:42 PM EDT (5/20) 3:03 AM EDT (5/20)
Length of Visible Light 14h 40m
Length of Day
13h 47m
Waxing Gibbous, 75% of the Moon is Illuminated
May 20
Waxing Gibbous
May 25
Full
May 31
Last Quarter
Jun 8
New
Jun 16
First Quarter

Hourly Weather History & Observations

Time (EDT) Temp. Heat Index Dew Point Humidity Pressure Visibility Wind Dir Wind Speed Gust Speed Precip Events Conditions
12:15 AM 66.2 °F - 66.2 °F 100% 30.09 in 2.0 mi Calm Calm - 0.04 in Rain Rain
12:35 AM 66.2 °F - 66.2 °F 100% 30.08 in 9.0 mi SE 4.6 mph - 0.07 in Rain Light Rain
12:55 AM 66.2 °F - 66.2 °F 100% 30.07 in 10.0 mi SE 5.8 mph - 0.07 in Thunderstorm Clear
1:15 AM 66.2 °F - 66.2 °F 100% 30.07 in 10.0 mi SE 4.6 mph - N/A   Clear
1:35 AM 66.2 °F - 66.2 °F 100% 30.07 in 10.0 mi Calm Calm - N/A   Clear
1:55 AM 66.2 °F - 66.2 °F 100% 30.06 in 10.0 mi Calm Calm - N/A   Clear
2:15 AM 66.2 °F - 66.2 °F 100% 30.05 in 10.0 mi Calm Calm - N/A   Clear
2:35 AM 66.2 °F - 66.2 °F 100% 30.04 in 10.0 mi Calm Calm - N/A   Clear
2:55 AM 66.2 °F - 66.2 °F 100% 30.04 in 10.0 mi Calm Calm - N/A   Clear
3:15 AM 66.2 °F - 66.2 °F 100% 30.04 in 5.0 mi Calm Calm - N/A   Clear
3:35 AM 66.2 °F - 66.2 °F 100% 30.04 in 8.0 mi Calm Calm - N/A   Clear
3:55 AM 66.2 °F - 66.2 °F 100% 30.04 in 10.0 mi Calm Calm - N/A   Clear
4:15 AM 66.2 °F - 66.2 °F 100% 30.04 in 10.0 mi Calm Calm - N/A   Clear
4:35 AM 66.2 °F - 66.2 °F 100% 30.04 in 5.0 mi Calm Calm - N/A   Clear
4:55 AM 66.2 °F - 66.2 °F 100% 30.04 in 5.0 mi Calm Calm - N/A   Clear
5:15 AM 64.4 °F - 64.4 °F 100% 30.04 in 5.0 mi Calm Calm - N/A   Partly Cloudy
5:35 AM 64.4 °F - 64.4 °F 100% 30.05 in 6.0 mi Calm Calm - N/A   Clear
5:55 AM 64.4 °F - 64.4 °F 100% 30.05 in 6.0 mi Calm Calm - N/A   Clear
6:15 AM 66.2 °F - 66.2 °F 100% 30.06 in 5.0 mi Calm Calm - N/A   Partly Cloudy
6:35 AM 66.2 °F - 66.2 °F 100% 30.06 in 5.0 mi Calm Calm - N/A   Clear
6:50 AM 66.2 °F - 66.2 °F 100% 30.06 in 5.0 mi Calm Calm - N/A   Clear
7:50 AM 69.8 °F - 69.8 °F 100% 30.08 in 7.0 mi Calm Calm - N/A   Scattered Clouds
8:50 AM 71.6 °F - 71.6 °F 100% 30.09 in 7.0 mi South 5.8 mph - N/A   Mostly Cloudy
9:50 AM 73.4 °F - 73.4 °F 100% 30.10 in 7.0 mi South 5.8 mph - N/A   Partly Cloudy
10:50 AM 75.2 °F - 73.4 °F 94% 30.11 in 7.0 mi South 5.8 mph - N/A   Scattered Clouds
11:50 AM 77.0 °F - 73.4 °F 89% 30.11 in 7.0 mi Calm Calm - N/A   Scattered Clouds
12:50 PM 78.8 °F - 73.4 °F 83% 30.10 in 7.0 mi Calm Calm - N/A   Mostly Cloudy
1:50 PM 80.6 °F 84.6 °F 71.6 °F 74% 30.08 in 10.0 mi South 4.6 mph - N/A   Mostly Cloudy
2:50 PM 78.8 °F - 73.4 °F 83% 30.07 in 10.0 mi Variable 5.8 mph - N/A Thunderstorm Thunderstorm
3:50 PM 80.6 °F 85.4 °F 73.4 °F 79% 30.05 in 10.0 mi Variable 5.8 mph - N/A   Scattered Clouds
4:50 PM 80.6 °F 84.6 °F 71.6 °F 74% 30.03 in 10.0 mi ESE 9.2 mph - N/A   Scattered Clouds
6:50 PM 78.8 °F - 71.6 °F 78% 30.03 in 10.0 mi ESE 11.5 mph - N/A   Mostly Cloudy
7:50 PM 75.2 °F - 71.6 °F 89% 30.05 in 10.0 mi SSE 5.8 mph - N/A   Scattered Clouds
8:15 PM 75.2 °F - 71.6 °F 89% 30.07 in 10.0 mi Calm Calm - N/A   Scattered Clouds
8:35 PM 73.4 °F - 68.0 °F 83% 30.08 in 10.0 mi South 6.9 mph - N/A   Partly Cloudy
8:55 PM 71.6 °F - 68.0 °F 88% 30.08 in 10.0 mi SSW 4.6 mph - N/A   Clear
9:15 PM 71.6 °F - 68.0 °F 88% 30.09 in 10.0 mi SW 3.5 mph - N/A   Clear
9:35 PM 71.6 °F - 68.0 °F 88% 30.08 in 10.0 mi Calm Calm - N/A   Clear
9:55 PM 69.8 °F - 68.0 °F 94% 30.09 in 10.0 mi Calm Calm - N/A   Clear
10:15 PM 68.0 °F - 68.0 °F 100% 30.08 in 10.0 mi Calm Calm - N/A   Clear
10:35 PM 68.0 °F - 68.0 °F 100% 30.08 in 10.0 mi Calm Calm - N/A   Clear
10:55 PM 68.0 °F - 68.0 °F 100% 30.08 in 10.0 mi Calm Calm - N/A   Clear
11:15 PM 68.0 °F - 68.0 °F 100% 30.07 in 10.0 mi Calm Calm - N/A   Clear
11:35 PM 66.2 °F - 66.2 °F 100% 30.07 in 10.0 mi Calm Calm - N/A   Clear
11:55 PM 66.2 °F - 66.2 °F 100% 30.06 in 7.0 mi Calm Calm - N/A   Clear